Location: 33617
(28.0307°N, 82.3994°W)
Time: 23:44:09
(UTC-04:00)

ISS - Visible Passes

Search period start: 19 October 2019 00:00
Search period end: 29 October 2019 00:00
Orbit: 411 x 421 km, 51.6° (Epoch: 20 October)

Date Brightness Start Highest point End Pass type
(mag) Time Alt. Az. Time Alt. Az. Time Alt. Az.
20 Oct -0.7 06:58:22 10° S 07:00:43 18° SE 07:03:04 10° E visible
22 Oct -3.5 06:56:44 10° SW 07:00:04 73° SE 07:03:26 10° NE visible
23 Oct -2.0 06:09:06 14° S 06:11:33 32° SE 06:14:36 10° ENE visible
24 Oct -0.7 05:23:52 15° ESE 05:23:52 15° ESE 05:25:14 10° E visible
24 Oct -2.7 06:56:50 11° WSW 06:59:36 28° NW 07:02:34 10° NNE visible
25 Oct -3.5 06:11:17 54° NNW 06:11:17 54° NNW 06:14:15 10° NE visible
26 Oct -0.5 05:25:28 11° NE 05:25:28 11° NE 05:25:40 10° NE visible
26 Oct -1.5 06:58:41 10° NW 06:59:20 10° NW 06:59:59 10° NNW visible
27 Oct -1.2 06:12:22 12° N 06:12:22 12° N 06:12:52 10° N visible
